Year,Month,Day,TMAXC,TMINC,WINDKMD,PRECMM,RHMAX,RHMIN,SRKJD
2001,4,1,10.7,3.3,205,0,77.9,36,12473
2001,4,2,8,-4.9,271,1.8,99.7,59.7,7905
2001,4,3,1.1,-3,551,4.6,100,90,10691
2001,4,4,2.9,-2,296,0,100,66.5,17084
2001,4,5,8.5,-1.8,416,0,80.1,49.2,19225
2001,4,6,11.4,0.8,275,0,84.4,36.2,13294
2001,4,7,14.9,-2.7,177,0,93.2,28.6,15820
2001,4,8,11.2,2.1,342,0.4,94.9,40.8,10181
2001,4,9,12.2,-1.2,288,0,99.3,38.8,16617
2001,4,10,3.8,0,211,3.8,100,71.4,6173
2001,4,11,3.7,-3.3,302,0,92,53.1,12605
2001,4,12,3.9,-2.4,173,0.6,97.5,72.1,8135
2001,4,13,11,-3.2,295,0,86.8,22.1,17210
2001,4,14,5.3,-1.9,345,2,92.8,61.7,7614
2001,4,15,3,-4.5,223,0,80,42.7,13089
2001,4,16,8.6,-6.3,499,0,77.2,20.6,22470
2001,4,17,19.3,-0.4,624,0,55.6,20.7,16202
2001,4,18,18.2,2.2,248,0,60.4,20.3,18839
2001,4,19,12.5,0.6,325,0,74.6,32.9,15918
2001,4,20,5.8,-2.6,370,0,90.9,42,12864
2001,4,21,8.3,-7.2,221,0,90.9,33.9,19707
2001,4,22,14.7,-2.8,281,0,99,23.2,20632
2001,4,23,16.9,-2.9,329,0,86.5,24.9,17886
2001,4,24,21,5.5,412,0,64.7,22,20375
2001,4,25,20.6,8.8,353,0,51.7,25.6,21383
2001,4,26,25.6,3.4,141,0,68,15.1,22507
2001,4,27,27.1,8.3,199,0,71.7,15.9,22616
2001,4,28,25.8,8.7,419,0,66.6,21.2,18239
2001,4,29,15.7,6.5,566,0,50.4,19.4,23154
2001,4,30,15.3,4.5,489,0,65.6,21.4,17343
2001,5,1,13.1,6.5,477,0,61.9,18.2,15676
2001,5,2,12.3,-1.3,258,0,63.1,30.3,18746
2001,5,3,20.2,-1.9,308,0,66.7,16.2,23757
2001,5,4,22.7,6.1,248,0,54.1,19.8,22790
2001,5,5,17.1,4.8,514,0.6,91.1,15.6,18417
2001,5,6,13.2,-1.4,409,0,87,28,15873
2001,5,7,20.1,-4.9,117,0,72.5,13.4,24548
2001,5,8,23.6,5.7,414,0,62.4,14.8,21461
2001,5,9,14.8,5.6,152,0,76,33.5,14674
2001,5,10,16,5.6,203,2.6,95.3,27.6,21779
2001,5,11,23.8,1.8,179,0,81.1,14.7,19917
2001,5,12,27.9,2.6,224,0,65.7,14.7,19072
2001,5,13,28,15.1,300,0,49,19.7,12733
2001,5,14,22.2,11.8,327,0,45.6,19.7,9213
2001,5,15,21,10.1,440,0,52.3,21.8,21187
2001,5,16,17.2,8.2,376,0.8,91,24.3,14212
2001,5,17,20.8,5.5,388,0,84,21.2,24275
2001,5,18,19.8,6.9,306,0,64.8,22.8,19604
2001,5,19,18.8,4.9,429,2,79.4,27.2,11876
2001,5,20,13.1,2.6,515,1.4,95.7,30.4,18729
2001,5,21,20,1.9,226,0,81.6,17.8,25324
2001,5,22,25.3,10.1,197,0,69.4,21.1,25887
2001,5,23,31.2,11.6,444,0,46.8,14.2,26400
2001,5,24,33.2,14.6,566,0,27.1,13.1,24419
2001,5,25,22.8,10.9,410,1.2,90.1,19.8,24257
2001,5,26,24.2,6.9,200,0,86.5,28.5,25912
2001,5,27,27.4,9.3,332,0,70.5,19.1,25519
2001,5,28,29.2,15.6,649,1.2,73.8,18.5,20729
2001,5,29,16.6,5.4,389,2,82.1,18.4,22672
2001,5,30,22.2,5.4,320,0,52.3,13.6,27801
2001,5,31,23,4.8,416,0,75.9,24.3,23746
2001,6,1,25.6,5.1,326,0,77.8,21.6,27139
2001,6,2,20.3,12.8,224,0,63.9,35.6,10164
2001,6,3,18.7,4,387,5.2,96.8,37.2,18738
2001,6,4,15.6,9.5,475,12,99.3,73.5,11469
2001,6,5,15.4,5.4,214,3.4,99.6,63,12916
2001,6,6,17.9,8.7,149,6.6,100,50.2,16488
2001,6,7,21.8,7.2,201,0,94.8,29.3,25013
2001,6,8,24.2,6.2,118,0,95.4,25.9,25782
2001,6,9,26,9.9,385,0,84.8,24.1,22099
2001,6,10,19.7,11.9,483,0,50.3,23.3,20864
2001,6,11,21.1,5.9,274,0,70.7,19.4,24698
2001,6,12,19,6.2,285,0,88.7,34.7,14138
2001,6,13,19.8,5.8,220,0.8,89.5,35.1,19465
2001,6,14,23.8,4.4,209,0.2,99.3,20.2,27119
2001,6,15,15.9,8.6,307,7.6,96.4,58.9,13216
2001,6,16,20.7,9,163,0,94.1,30.4,25570
2001,6,17,19.6,6.6,305,0,95,31.5,25482
2001,6,18,16.4,7.1,253,1,93,45,16810
2001,6,19,24.4,4.4,243,0,99,22,26269
2001,6,20,28.1,7.6,141,0,84,17,28184
2001,6,21,31.6,11.6,209,0,68,17,26883
2001,6,22,31.9,14.9,279,0,73,16,26961
2001,6,23,27.2,12.7,216,0,74,23,21843
2001,6,24,25.4,13.9,358,1.4,82,19,19843
2001,6,25,21.2,10.5,394,3.8,95.2,28,24920
2001,6,26,19.2,10.8,432,0,78.5,43.9,11853
2001,6,27,29.8,10.5,223,37.8,98.1,40.7,20803
2001,6,28,25.5,15.4,385,1,98.6,31.8,25969
2001,6,29,22.4,11.6,293,0,79,45.6,24772
2001,6,30,23.1,10.9,297,0,96,44.7,20151
2001,7,1,29,14.4,501,0,84.4,21.8,24770
2001,7,2,27.2,14.2,201,0,89.8,32.5,26436
2001,7,3,28.2,15,284,0,77.1,28,27607
2001,7,4,35.7,15.7,291,0,74.1,19.8,28053
2001,7,5,32.3,13.7,393,0,71.3,22.6,16945
2001,7,6,29.3,6,289,0,93.1,14.6,23902
2001,7,7,31.3,10.7,289,0,71.7,18.1,27850
2001,7,8,33.1,14.3,215,0,73.1,17.8,27666
2001,7,9,33.8,11.9,191,0,84.3,16.1,27528
2001,7,10,30.4,16.4,420,0,73.3,31.8,23419
2001,7,11,34.1,16.1,346,0,94.3,20.5,26536
2001,7,12,24.9,17.7,242,0,87.7,51.7,11712
2001,7,13,32.3,15.8,242,0,94.2,23.5,22485
2001,7,14,31,12.1,211,0,94.4,15.9,26500
2001,7,15,28.8,11.4,211,0,84.7,23.5,17035
2001,7,16,28.8,13.6,197,0.4,96,27.2,24819
2001,7,17,25.8,10.1,382,0,78.6,19.2,26873
2001,7,18,25,8.4,400,0,77.4,21.5,25859
2001,7,19,26.8,9.4,260,0,71.7,22.3,19862
2001,7,20,30,8.4,171,0,79.9,18.8,24807
2001,7,21,26.4,13.3,215,0,83,35.3,18671
2001,7,22,22.3,13.4,264,0.2,87.2,45.9,16087
2001,7,23,27.8,8.5,130,0,99.2,24.4,25967
2001,7,24,26.7,13,281,5,86.1,37.4,18594
2001,7,25,23.8,7.7,238,0,100,30.8,23957
2001,7,26,26,10.6,146,0.8,93.3,28.8,23999
2001,7,27,32.1,8.3,174,0,98.1,17,26029
2001,7,28,29.5,13,291,0,77.3,20.1,16592
2001,7,29,24.5,8.9,473,0.2,73.2,23.8,24756
2001,7,30,24.9,6.9,155,0,89,27,23121
2001,7,31,16.3,10.9,164,8.4,98,58,4908
2001,8,1,26,9.5,285,0.2,99.1,31.8,22974
2001,8,2,32.5,13,260,0,80.5,18.1,23327
2001,8,3,38.1,13.2,262,0,83,13.2,22871
2001,8,4,27.9,16.2,175,0.8,76.4,32.9,16100
2001,8,5,30,12.1,302,0,72.3,19.1,24234
2001,8,6,35.2,14.6,266,0,66.8,17.3,24348
2001,8,7,33.9,14.6,274,0,73.2,17.7,24576
2001,8,8,21.2,11.4,388,0.2,86,37.5,14342
2001,8,9,25,4.8,109,0,93.4,26.2,22523
2001,8,10,31.4,11.5,251,0,65.7,13.9,23082
2001,8,11,31.2,13.7,137,0,62.7,17.6,22439
2001,8,12,34.5,11.3,128,0,75.4,12.6,22774
2001,8,13,35,13.9,237,0,61.7,14.1,17660
2001,8,14,30.5,19,260,0,63,21.1,19482
2001,8,15,30.9,15.2,169,0,74.1,22,20443
2001,8,16,32.7,13.2,210,0,63.4,18.8,21586
2001,8,17,35.6,11.9,231,0,58.5,12.7,21860
2001,8,18,35.5,20.7,387,0,32.7,13.6,15744
2001,8,19,25.9,14.7,259,0,58.2,26.6,19298
2001,8,20,29,10.4,242,0,61.9,13.3,20996
2001,8,21,28.1,9.8,183,0,58.8,15.2,18884
2001,8,22,32.2,10.1,172,0,65.5,12.9,19949
2001,8,23,29.3,13.3,338,0,64.5,18.9,18441
2001,8,24,24.6,11.4,423,0,61.5,19.3,20718
2001,8,25,26.5,4.9,247,0,75.5,18.8,18749
2001,8,26,29.3,6.1,128,0,72.2,14.2,18471
2001,8,27,33.6,10.2,173,0,49.4,12.2,20199
2001,8,28,25,9.7,320,0,80.9,29.9,16500
2001,8,29,25.8,7.2,94,0,91.8,29.9,18383
2001,8,30,29.4,10.2,268,0,64.2,21,18876
2001,8,31,31.3,16.2,492,0,49.9,15.4,15388
2001,9,1,26.9,15.8,483,0,42.5,20.6,11874
2001,9,2,24.9,9.2,182,0,81.6,20.7,16889
2001,9,3,29,10.5,372,0,55.2,12.1,16579
2001,9,4,32.1,11.8,287,0,44.8,13.7,16954
2001,9,5,16.8,9.5,231,0,77.8,40,5683
2001,9,6,23.1,1.7,266,0,95.8,17.6,16049
2001,9,7,12.7,8.5,475,0,76.3,51.6,9094
2001,9,8,23.3,3.5,292,0,84.1,17.1,17220
2001,9,9,17.9,7.8,234,0,73.2,27.2,15325
2001,9,10,13.9,8.9,362,0.8,92.4,37.1,5724
2001,9,11,13.9,7.6,144,0.4,93.8,52.8,8172
2001,9,12,21.2,10.1,291,0,74.9,38,9390
2001,9,13,22.5,8,300,0,69.8,30,16321
2001,9,14,23.5,7.5,251,0,96,33.6,15668
2001,9,15,25.2,9.1,380,0,86.6,29,16288
2001,9,16,25.2,5.7,171,0,85.6,24.9,16045
2001,9,17,25.4,6.9,223,0,70.5,21.9,15886
2001,9,18,25.8,10.8,326,0,66.1,28.4,14436
2001,9,19,17.3,6.5,230,0,87.1,52.6,8366
2001,9,20,20.2,2.6,182,0,98.3,29.6,12109
2001,9,21,24.1,6.2,292,0,81.7,19.2,11683
2001,9,22,23.4,0.3,166,0,88.8,27.6,14241
2001,9,23,27.8,10.9,572,0,64.4,23.4,14270
2001,9,24,32.3,10.3,350,0,62.5,13,12996
2001,9,25,32.9,10.7,391,0,54.7,13.2,14046
2001,9,26,24.1,11.6,449,0,48.8,22,13305
2001,9,27,25.7,8.5,288,0,63.7,25,12028
2001,9,28,19.8,9.5,254,0,77.9,32,7501
2001,9,29,23.1,3.1,235,0,81.7,16.6,13279
2001,9,30,23.3,1.9,135,0,65,18.6,13317
2001,10,1,21.1,2.1,272,0,69.9,25.4,12482
2001,10,2,15.1,-1.8,184,0,85.1,33.4,11452
2001,10,3,13.5,-1.9,159,0,81.3,25.4,10722
2001,10,4,6.7,-4.5,302,0,85.6,45.0,5982
2001,10,5,16.2,-5.6,198,0,92.5,13.3,11914
2001,10,6,22.6,-0.9,314,0,43.3,10.3,10598
2001,10,7,16.4,6.9,381,0,73.7,27.9,6752
2001,10,8,17.8,5.8,316,0,64.2,22.2,9619
2001,10,9,15.7,3.4,276,0,68.6,25.0,10991
2001,10,10,16.7,0.7,360,0,65.3,23.8,9573
2001,10,11,10.4,2.1,329,2.2,94.0,47.9,3296
2001,10,12,13.1,-2.1,509,0,90.8,33.1,9506
2001,10,13,11.2,2.0,378,0,73.3,25.1,9478
2001,10,14,7.4,-7.2,222,0,87.4,34.0,7390